sat.trackr.live / text

‹ back to catalog

STARLINK-3326

NORAD 50844 · 2022-001AT

PAYLOAD ACTIVE UNKNOWN

§ Identity

Operator
Country
US
Launch date
2022-01-06
Launch site
AFETR
Launch vehicle
Mass (kg)
RCS (m²)

Purposes: comms

External: N2YO · Heavens-Above · Gunter

§ Orbital elements

Epoch: 2026-05-24T10:38:51.372960Z

Period
95.44 min
Inclination
53.2129°
Eccentricity
0.0001583
Mean motion
15.08819688 rev/d
Perigee alt
538.7 km
Apogee alt
540.9 km
Semi-major
6,917.9 km
B*
2.1044e-4
RAAN
199.0512°
Arg perigee
85.5157°
Mean anomaly
274.6016°
Rev number
24,170

§ Raw data

STARLINK-33261 50844U 22001AT  26144.44365015  .00003061  00000+0  21044-3 0  99942 50844  53.2129 199.0512 0001583  85.5157 274.6016 15.08819688241704

JSON: /api/v1/satellites/50844 · /tle

For live sub-satellite position, see the globe view (requires WebGL).

§ Visibility from observer

Set your observer location to see the next 7 days of passes ≥ 10°. The values pass through the URL so the page stays shareable.

No JS? Fill the form by hand. The geolocation button needs JavaScript.